Weather History for Ortonville, MN

Change the Weather History Date:

Thursday, March 13, 2014

  Actual Average (KAQP) Record (KAQP)
Temperature  
Mean Temperature 44 °F -  
Max Temperature 59 °F 30 °F 68 °F (2012)
Min Temperature 28 °F 14 °F 1 °F (2011)
Degree Days  
Heating Degree Days 22    
Moisture  
Dew Point 32 °F    
Average Humidity 65    
Maximum Humidity 93    
Minimum Humidity 36    
Precipitation  
Precipitation 0.00 in - - ()
Sea Level Pressure  
Sea Level Pressure 29.70 in    
Wind  
Wind Speed 8 mph (WSW)    
Max Wind Speed 21 mph    
Max Gust Speed 26 mph    
Visibility 10 miles    
Events      
Averages and records for this station are not official NWS values.
T = Trace of Precipitation, MM = Missing Value Source: NWS Daily Summary

Daily Weather History Graph

Daily Weather History Graph

Search for Another Location

Airport:

Trip Planner

Search our weather history database for the weather conditions in past years. The results will help you decide how hot, cold, wet, or windy it might be!

Date:

Astronomy

Mar. 13, 2014 Rise Set
Actual Time 7:41 AM CDT 7:29 PM CDT
Civil Twilight 7:12 AM CDT 7:58 PM CDT
Nautical Twilight 6:38 AM CDT 8:32 PM CDT
Astronomical Twilight 6:03 AM CDT 9:07 PM CDT
Moon 4:50 PM CDT (3/13) 5:55 AM CDT (3/13)
Length of Visible Light 12h 45m
Length of Day
11h 47m
Waxing Gibbous, 91% of the Moon is Illuminated
Mar 13
Waxing Gibbous
Mar 16
Full
Mar 23
Last Quarter
Mar 30
New
Apr 7
First Quarter

Hourly Weather History & Observations

Time (CDT) Temp. Windchill Dew Point Humidity Pressure Visibility Wind Dir Wind Speed Gust Speed Precip Events Conditions
12:14 AM 30.2 °F 22.6 °F 28.4 °F 93% 29.91 in 10.0 mi SE 8.1 mph - N/A   Overcast
12:33 AM 30.2 °F 24.3 °F 28.4 °F 93% 29.91 in 10.0 mi SSE 5.8 mph - N/A   Mostly Cloudy
12:54 AM 30.2 °F 23.4 °F 26.6 °F 86% 29.89 in 7.0 mi SE 6.9 mph - N/A   Clear
1:14 AM 30.2 °F 24.3 °F 26.6 °F 86% 29.88 in 7.0 mi SSE 5.8 mph - N/A   Clear
1:33 AM 30.2 °F 25.4 °F 26.6 °F 86% 29.87 in 7.0 mi SSE 4.6 mph - N/A   Clear
1:54 AM 30.2 °F 23.4 °F 26.6 °F 86% 29.87 in 7.0 mi SSE 6.9 mph - N/A   Clear
2:14 AM 28.4 °F 23.3 °F 26.6 °F 93% 29.86 in 5.0 mi SSE 4.6 mph - N/A   Clear
2:33 AM 30.2 °F 24.3 °F 26.6 °F 86% 29.85 in 5.0 mi SSE 5.8 mph - N/A   Clear
2:54 AM 28.4 °F 23.3 °F 26.6 °F 93% 29.85 in 5.0 mi SSE 4.6 mph - N/A   Clear
3:14 AM 28.4 °F 24.6 °F 26.6 °F 93% 29.85 in 7.0 mi South 3.5 mph - N/A   Clear
3:34 AM 30.2 °F - 28.4 °F 93% 29.84 in 10.0 mi Calm Calm - N/A   Clear
3:54 AM 30.2 °F 24.3 °F 28.4 °F 93% 29.83 in 10.0 mi West 5.8 mph - N/A   Clear
4:13 AM 32.0 °F 24.8 °F 28.4 °F 87% 29.83 in 10.0 mi West 8.1 mph - N/A   Clear
4:34 AM 33.8 °F 27.7 °F 28.4 °F 81% 29.83 in 10.0 mi West 6.9 mph - N/A   Clear
4:54 AM 33.8 °F 27.0 °F 28.4 °F 81% 29.82 in 10.0 mi West 8.1 mph - N/A   Clear
5:13 AM 33.8 °F 27.0 °F 28.4 °F 81% 29.82 in 10.0 mi West 8.1 mph - N/A   Clear
5:34 AM 33.8 °F 27.7 °F 28.4 °F 81% 29.82 in 10.0 mi West 6.9 mph - N/A   Clear
5:54 AM 33.8 °F 27.7 °F 28.4 °F 81% 29.82 in 10.0 mi WSW 6.9 mph - N/A   Clear
6:13 AM 33.8 °F 30.8 °F 28.4 °F 81% 29.81 in 10.0 mi West 3.5 mph - N/A   Clear
6:34 AM 33.8 °F 28.6 °F 28.4 °F 81% 29.81 in 10.0 mi West 5.8 mph - N/A   Clear
6:54 AM 33.8 °F 27.7 °F 28.4 °F 81% 29.80 in 10.0 mi West 6.9 mph - N/A   Clear
7:13 AM 33.8 °F 27.0 °F 28.4 °F 81% 29.80 in 10.0 mi West 8.1 mph - N/A   Clear
7:34 AM 33.8 °F 27.7 °F 28.4 °F 81% 29.80 in 10.0 mi WSW 6.9 mph - N/A   Clear
7:54 AM 33.8 °F 27.7 °F 28.4 °F 81% 29.79 in 10.0 mi WSW 6.9 mph - N/A   Clear
8:13 AM 33.8 °F 26.4 °F 28.4 °F 81% 29.79 in 10.0 mi WSW 9.2 mph - N/A   Clear
8:34 AM 35.6 °F 28.6 °F 28.4 °F 75% 29.78 in 10.0 mi West 9.2 mph - N/A   Clear
8:54 AM 37.4 °F 29.8 °F 30.2 °F 75% 29.78 in 10.0 mi West 11.5 mph - N/A   Clear
9:14 AM 37.4 °F 30.3 °F 30.2 °F 75% 29.78 in 10.0 mi West 10.4 mph - N/A   Clear
9:34 AM 39.2 °F 33.0 °F 30.2 °F 70% 29.77 in 10.0 mi West 9.2 mph - N/A   Clear
9:53 AM 41.0 °F 36.4 °F 32.0 °F 70% 29.76 in 10.0 mi WSW 6.9 mph - N/A   Clear
10:14 AM 42.8 °F 37.5 °F 32.0 °F 66% 29.76 in 10.0 mi West 9.2 mph - N/A   Clear
10:34 AM 44.6 °F 40.7 °F 33.8 °F 66% 29.76 in 10.0 mi WSW 6.9 mph - N/A   Clear
10:53 AM 46.4 °F 43.5 °F 33.8 °F 62% 29.76 in 10.0 mi SW 5.8 mph - N/A   Clear
11:14 AM 48.2 °F - 33.8 °F 58% 29.74 in 10.0 mi SW 8.1 mph - N/A   Clear
11:34 AM 48.2 °F - 33.8 °F 58% 29.73 in 10.0 mi SW 9.2 mph - N/A   Clear
11:53 AM 50.0 °F - 35.6 °F 58% 29.72 in 10.0 mi SW 9.2 mph - N/A   Clear
12:14 PM 50.0 °F - 35.6 °F 58% 29.71 in 10.0 mi SW 10.4 mph 16.1 mph N/A   Clear
12:34 PM 51.8 °F - 35.6 °F 54% 29.69 in 10.0 mi SSW 8.1 mph - N/A   Clear
12:53 PM 53.6 °F - 35.6 °F 51% 29.68 in 10.0 mi SSW 10.4 mph - N/A   Clear
1:14 PM 55.4 °F - 35.6 °F 47% 29.67 in 10.0 mi SW 15.0 mph 20.7 mph N/A   Clear
1:33 PM 55.4 °F - 35.6 °F 47% 29.66 in 10.0 mi SW 12.7 mph - N/A   Clear
1:54 PM 57.2 °F - 35.6 °F 44% 29.65 in 10.0 mi SW 6.9 mph 17.3 mph N/A   Clear
2:14 PM 59.0 °F - 32.0 °F 36% 29.64 in 10.0 mi WSW 20.7 mph 24.2 mph N/A   Clear
2:34 PM 57.2 °F - 33.8 °F 41% 29.63 in 10.0 mi WSW 15.0 mph 26.5 mph N/A   Clear
2:54 PM 59.0 °F - 33.8 °F 39% 29.62 in 10.0 mi SW 17.3 mph 20.7 mph N/A   Clear
3:14 PM 57.2 °F - 33.8 °F 41% 29.62 in 10.0 mi SW 9.2 mph 19.6 mph N/A   Clear
3:34 PM 57.2 °F - 33.8 °F 41% 29.61 in 10.0 mi WSW 15.0 mph 18.4 mph N/A   Clear
3:54 PM 57.2 °F - 33.8 °F 41% 29.60 in 10.0 mi WSW 11.5 mph 19.6 mph N/A   Clear
4:13 PM 57.2 °F - 33.8 °F 41% 29.59 in 10.0 mi WSW 15.0 mph 19.6 mph N/A   Clear
4:34 PM 57.2 °F - 33.8 °F 41% 29.58 in 10.0 mi WSW 12.7 mph 20.7 mph N/A   Clear
4:54 PM 57.2 °F - 35.6 °F 44% 29.58 in 10.0 mi WSW 9.2 mph 16.1 mph N/A   Clear
5:13 PM 57.2 °F - 33.8 °F 41% 29.58 in 10.0 mi WSW 12.7 mph - N/A   Clear
5:34 PM 57.2 °F - 33.8 °F 41% 29.57 in 10.0 mi WSW 15.0 mph 21.9 mph N/A   Clear
5:54 PM 57.2 °F - 35.6 °F 44% 29.56 in 10.0 mi WSW 11.5 mph 16.1 mph N/A   Clear
6:13 PM 57.2 °F - 35.6 °F 44% 29.54 in 10.0 mi WSW 11.5 mph 18.4 mph N/A   Clear
6:34 PM 57.2 °F - 35.6 °F 44% 29.55 in 10.0 mi WSW 11.5 mph - N/A   Clear
6:54 PM 57.2 °F - 33.8 °F 41% 29.55 in 10.0 mi West 11.5 mph - N/A   Clear
7:13 PM 55.4 °F - 35.6 °F 47% 29.55 in 10.0 mi West 10.4 mph - N/A   Clear
7:34 PM 53.6 °F - 33.8 °F 47% 29.55 in 10.0 mi WSW 8.1 mph - N/A   Clear
7:54 PM 51.8 °F - 35.6 °F 54% 29.56 in 10.0 mi WSW 10.4 mph - N/A   Clear
8:13 PM 51.8 °F - 35.6 °F 54% 29.56 in 10.0 mi WSW 10.4 mph - N/A   Clear
8:34 PM 50.0 °F - 33.8 °F 54% 29.55 in 10.0 mi WSW 10.4 mph - N/A   Clear
8:53 PM 48.2 °F - 33.8 °F 58% 29.55 in 10.0 mi WSW 8.1 mph - N/A   Clear
9:14 PM 48.2 °F - 33.8 °F 58% 29.55 in 10.0 mi West 10.4 mph - N/A   Clear
9:34 PM 46.4 °F 42.4 °F 33.8 °F 62% 29.55 in 10.0 mi West 8.1 mph - N/A   Clear
9:53 PM 46.4 °F 45.2 °F 33.8 °F 62% 29.56 in 10.0 mi NNW 3.5 mph - N/A   Clear
10:14 PM 46.4 °F 40.7 °F 33.8 °F 62% 29.58 in 10.0 mi NW 12.7 mph - N/A   Clear
10:34 PM 46.4 °F 40.1 °F 33.8 °F 62% 29.58 in 10.0 mi NW 15.0 mph 20.7 mph N/A   Clear
10:53 PM 46.4 °F 40.7 °F 33.8 °F 62% 29.59 in 10.0 mi NW 12.7 mph 20.7 mph N/A   Clear
11:14 PM 44.6 °F 37.4 °F 30.2 °F 57% 29.59 in 10.0 mi NW 16.1 mph 24.2 mph N/A   Clear
11:34 PM 44.6 °F 37.2 °F 30.2 °F 57% 29.60 in 10.0 mi NW 17.3 mph 23.0 mph N/A   Clear
11:53 PM 42.8 °F 35.8 °F 30.2 °F 61% 29.60 in 10.0 mi NW 13.8 mph - N/A   Clear